This is the latest recevied weather packets stored in our database for station/object W5GMO. If no packets are shown the sender has not sent any weather packets the latest 10 day(s).
| Time | Temp. | Humidity | Pressure | Rain* | Wind** | Luminosity | Snow |
|---|---|---|---|---|---|---|---|
| 1788369938 | 31.67° C | 1% | 1019.3 hPa | 0 mm | - | 333 W/m² | - |
| 1788369634 | 31.67° C | 1% | 1019 hPa | 0 mm | - | 291 W/m² | - |
| 1788369329 | 31.67° C | 1% | 1019.1 hPa | 0 mm | - | 580 W/m² | - |
| 1788369025 | 31.67° C | 1% | 1018.9 hPa | 0 mm | - | 595 W/m² | - |
| 1788368720 | 32.22° C | 1% | 1018.9 hPa | 0 mm | - | 456 W/m² | - |
| 1788368417 | 32.22° C | 1% | 1018.7 hPa | 0 mm | - | 523 W/m² | - |
| 1788368116 | 32.78° C | 1% | 1018.7 hPa | 0 mm | - | 541 W/m² | - |
| 1788367816 | 32.78° C | 1% | 1018.7 hPa | 0 mm | - | 587 W/m² | - |
| 1788367511 | 32.78° C | 1% | 1018.5 hPa | 0 mm | - | 542 W/m² | - |
| 1788367209 | 32.78° C | 1% | 1018.6 hPa | 0 mm | - | 460 W/m² | - |
| 1788366906 | 31.67° C | 1% | 1018.5 hPa | 0 mm | - | 570 W/m² | - |
| 1788366603 | 31.11° C | 1% | 1018.9 hPa | 0 mm | - | 468 W/m² | - |
| 1788366298 | 31.67° C | 1% | 1018.7 hPa | 0 mm | - | 556 W/m² | - |
| 1788365999 | 32.78° C | 1% | 1018.8 hPa | 0 mm | - | 513 W/m² | - |
| 1788365694 | 32.78° C | 1% | 1018.6 hPa | 0 mm | - | 487 W/m² | - |
| 1788365389 | 32.22° C | 1% | 1018.5 hPa | 0 mm | - | 651 W/m² | - |
| 1788365085 | 31.67° C | 1% | 1018.5 hPa | 0 mm | - | 703 W/m² | - |
| 1788364783 | 31.67° C | 1% | 1018.6 hPa | 0 mm | - | 643 W/m² | - |
| 1788364478 | 31.67° C | 1% | 1018.5 hPa | 0 mm | - | 579 W/m² | - |
| 1788364172 | 31.11° C | 1% | 1018.6 hPa | 0 mm | - | 575 W/m² | - |
| 1788363868 | 31.11° C | 1% | 1018.4 hPa | 0 mm | - | 459 W/m² | - |
| 1788363567 | 31.11° C | 1% | 1018.5 hPa | 0 mm | - | 556 W/m² | - |
| 1788363266 | 31.11° C | 1% | 1018.6 hPa | 0 mm | - | 552 W/m² | - |
| 1788362961 | 31.11° C | 1% | 1018.7 hPa | 0 mm | - | 611 W/m² | - |
| 1788362658 | 31.11° C | 1% | 1018.5 hPa | 0 mm | - | 636 W/m² | - |
* Rain latest hour (hover to see other rain measurements)
** Current wind speed in m/s (hover to see current wind gust speed)